Regional Weather Roundup
Issued by NWS

Home | Current Version | Previous Version | Text Only | Print | Product List | Glossary On
Versions: 1 2 3 4 5 6 7 8 9 10 11 12 13 14 15 16 17 18 19 20 21 22 23 24 25 26 27 28 29 30 31 32 33 34 35 36 37 38 39 40 41 42 43 44 45 46 47 48 49 50
000
ASUS44 KFWD 210915
RWRTX
NORTH TEXAS HOURLY WEATHER ROUNDUP
NATIONAL WEATHER SERVICE FORT WORTH TX
400 AM CDT THU AUG 21 2014

NOTE: "FAIR" INDICATES FEW OR NO CLOUDS BELOW 12,000 FEET WITH NO
SIGNIFICANT WEATHER AND/OR OBSTRUCTIONS TO VISIBILITY.

TXZ118-119-211000-
DALLAS/FORT WORTH METROPLEX

CITY           SKY/WX    TMP DP  RH WIND       PRES   REMARKS
DFW AIRPORT    CLEAR     81  72  74 S13       29.95S
DALLAS LOVE    CLEAR     81  73  76 S12       29.96F
FTW MEACHAM    CLEAR     82  71  69 S13       29.95R
DAL-EXECUTIVE  CLEAR     81  73  76 S10G21    29.96F
FTW-ALLIANCE   CLEAR     80  71  74 S8        29.95R
FTW-NAS-JRB    CLEAR     84  70  62 S16       29.99S
FTW-SPINKS     CLEAR     80  72  75 S9        29.97S
ARLINGTON      CLEAR     80  72  76 S12       29.96S
GRAND PRAIRIE  CLEAR     81  71  71 SE10      29.97S
ADDISON        CLEAR     82  71  70 S10G18    29.98S
MESQUITE       CLEAR     78  73  84 S8        29.97F
LANCASTER      CLEAR     78  72  81 S8        29.98S
$$

TXZ091>094-102>105-117-120-121-131>134-211000-
NORTH CENTRAL TEXAS

CITY           SKY/WX    TMP DP  RH WIND       PRES   REMARKS
SHRMAN/DENISON CLEAR     79  71  76 S12       29.97S
GAINESVILLE    CLEAR     79  71  76 S12       29.98R
BOWIE          CLEAR     79  70  74 S9        29.95F
BRIDGEPORT     CLEAR     81  67  61 S12G18    29.96S
DECATUR        CLEAR     80  69  70 S12       29.97R
DENTON         CLEAR     81  71  71 S13       29.95S
MCKINNEY       CLEAR     79  73  82 S12       29.97S
GREENVILLE     CLEAR     79  72  78 S8        29.99S
ROCKWALL       CLEAR     79  74  85 S9        29.96F
TERRELL        CLEAR     80  76  87 S9        29.98F
WAXAHACHIE     CLEAR     77  71  81 S8        29.99R
CLEBURNE       CLEAR     79  75  89 S10       29.98S
GRANBURY       CLEAR     82  69  64 S10       29.97S
$$

TXZ083>090-098>101-113>116-127>130-139>142-154-155-211000-
WESTERN NORTH TEXAS

CITY           SKY/WX    TMP DP  RH WIND       PRES   REMARKS
WICHITA FALLS  CLEAR     81  67  62 S14       29.91S
WF-KICKAPOO    CLEAR     81  65  59 S9        29.93S
VERNON         PTCLDY    80  57  45 S8        29.92S
ABILENE        PTCLDY    80  68  66 S14       29.97R
ABILENE-DYESS  PTCLDY    79  69  71 S16G23    29.96R
BRECKENRIDGE   CLEAR     82  67  59 S9G16     29.94S
GRAHAM         CLEAR     82  67  61 S9        29.93S
MINERAL WELLS  CLEAR     80  69  69 SE12      29.94S
STEPHENVILLE   CLEAR     79  67  68 S9        30.01S
COMANCHE       CLEAR     78  69  73 S14G20    29.98S
BROWNWOOD      CLOUDY    79  68  69 SE15G24   29.98S
COLEMAN        CLEAR     78  67  69 S12       29.98S
BRADY          CLEAR     75  68  78 SE12      30.00S
$$

TXZ143>147-156>162-174-175-211000-
CENTRAL TEXAS

CITY           SKY/WX    TMP DP  RH WIND       PRES   REMARKS
WACO           CLEAR     79  73  82 S15       29.98S
WACO-MCGREGOR  CLEAR     79  70  73 S14       30.00R
HILLSBORO      CLEAR     79  71  77 S12G20    29.98S
CORSICANA      CLEAR     78  73  84 S7        30.00S
MEXIA          CLEAR     74  73  95 S5        29.99S
HEARNE           N/A     77  75  94 SE5       30.00S
CAMERON        CLOUDY    80  75  85 S6        29.99S
TEMPLE         MOCLDY    79  70  73 S14       29.99R
KILLEEN        MOCLDY    79  72  78 S10       29.99S
KILLEEN-SKYLRK CLOUDY    79  68  69 S13       30.00R
FORT HOOD      MOCLDY    81  72  74 S13G20    29.99S
GATESVILLE     CLEAR     79  72  78 S8        30.01R
HAMILTON       CLEAR     78  69  73 S15G21    30.00S
LAMPASAS       MOCLDY    78  73  84 S7        29.99S
$$

TXZ095>097-106>112-122>126-135>138-148>153-164>167-211000-
EAST TEXAS

CITY           SKY/WX    TMP DP  RH WIND       PRES   REMARKS
PARIS          CLEAR     73  66  78 SE8       30.01R
SULPHUR SPRNGS CLEAR     79  73  81 S7        30.01S
CLARKSVILLE    MOCLDY    76  73  88 SE6       30.01S
MOUNT PLEASANT CLEAR     74  72  93 SE5       30.03S
GILMER         PTCLDY    75  75 100 SE6       30.04S
MINEOLA        CLOUDY    79  75  89 S6        30.01F
TYLER          CLEAR     76  73  91 S7        30.01S
LONGVIEW       CLEAR     76  72  87 S7        30.02S
MARSHALL       CLOUDY    76  73  88 CALM      30.06S
ATHENS         CLEAR     73  73 100 S6        30.00S
PALESTINE      CLEAR     77  75  94 S5        30.02S
JACKSONVILLE   CLOUDY    76  74  95 S6        30.04F
HENDERSON      MOCLDY    73  73  97 CALM      30.04S
NACOGDOCHES    PTCLDY    73  72  94 SE3       30.03F
LUFKIN         PTCLDY    77  73  87 SE6       30.03S
$$

SUPPLEMENTAL OBSERVATIONS (CENTRAL)

CITY           SKY/WX    TMP DP  RH WIND       PRES   REMARKS
LAKE TEXOMA      N/A     81  72  74 S6          N/A
PAT MAYSE LAKE   N/A     77  72  83 SE12        N/A
GREENVILLE       N/A     79  73  83 S6          N/A
CEDAR HILL       N/A     79  72  78 S10         N/A
LAKE LIMESTONE   N/A     75  73  94 S2          N/A
MCGREGOR         N/A     79  72  78 S13G22      N/A
$$

SUPPLEMENTAL OBSERVATIONS (WEST)

CITY           SKY/WX    TMP DP  RH WIND       PRES   REMARKS
MILLERS CREEK    N/A     81  59  47 S12         N/A
GRANBURY         N/A     81  68  65 S12         N/A
COMANCHE         N/A     79  68  69 S13G21      N/A
HAMBY            N/A     79  66  65 S16G23      N/A
COLORADO BEND    N/A     77  68  73 S10G20      N/A
$$

SUPPLEMENTAL OBSERVATIONS (EAST)

CITY           SKY/WX    TMP DP  RH WIND       PRES   REMARKS
CADDO LAKE       N/A     73  68  83 S1          N/A
N SABINE NF      N/A     75  73  94 MISG        N/A
$$

SUPPLEMENTAL OBSERVATIONS ARE A COLLECTION OF AUTOMATED INSTRUMENTS
THAT ARE MAINTAINED BY A VARIETY OF FEDERAL AND STATE AGENCIES.
CERTAIN ELEMENTS...SUCH AS HUMIDITY VALUES AND SUSTAINED WIND
SPEEDS...MAY BE APPROXIMATED.



USA.gov is the U.S. government's official web portal to all federal, state and local government web resources and services.